Change the Weather History Date:

Thursday, June 12, 2014

  Actual Average Record
Temperature  
Mean Temperature 102 °F -  
Max Temperature 111 °F 106 °F 114 °F (2012)
Min Temperature 94 °F 83 °F 78 °F (2002)
Cooling Degree Days 38    
Growing Degree Days 52 (Base 50)    
Moisture  
Dew Point 54 °F    
Average Humidity 20    
Maximum Humidity 37    
Minimum Humidity 5    
Precipitation  
Precipitation 0.00 in 0.00 in - ()
Sea Level Pressure  
Sea Level Pressure 29.47 in    
Wind  
Wind Speed 12 mph ()    
Max Wind Speed 23 mph    
Max Gust Speed 34 mph    
Visibility 3.9 miles    
Events      
Averages and records for this station are not official NWS values.
T = Trace of Precipitation, MM = Missing Value Source: Averaged Metar Reports

Daily Weather History Graph

Daily Weather History Graph

Search for Another Location

Airport or City:

Trip Planner

Search our weather history database for the weather conditions in past years. The results will help you decide how hot, cold, wet, or windy it might be!

Date:

Astronomy

Jun. 12, 2014 Rise Set
Actual Time 4:42 AM AST 6:24 PM AST
Civil Twilight 4:17 AM AST 6:50 PM AST
Nautical Twilight 3:46 AM AST 7:21 PM AST
Astronomical Twilight 3:13 AM AST 7:53 PM AST
Moon 5:40 PM AST (6/12) 3:53 AM AST (6/12)
Length of Visible Light 14h 33m
Length of Day
13h 41m
Waxing Gibbous, 99% of the Moon is Illuminated
Jun 12
Waxing Gibbous
Jun 13
Full
Jun 19
Last Quarter
Jun 27
New
Jul 5
First Quarter

Hourly Weather History & Observations

Time (AST) Temp. Heat Index Dew Point Humidity Pressure Visibility Wind Dir Wind Speed Gust Speed Precip Events Conditions
12:00 AM 103 °F - 44 °F 7% 29.48 in 6 mi NW 8.1 mph - -  
12:00 AM 104.0 °F - 44.6 °F 13% 29.47 in - NW 8.1 mph - N/A   Clear
12:30 AM 104.0 °F - 42.8 °F 12% 29.47 in - NW 4.6 mph - N/A   Clear
1:00 AM 100.4 °F - 50.0 °F 18% 29.44 in - NNW 4.6 mph - N/A   Clear
2:00 AM 96.8 °F 95.1 °F 55.4 °F 25% 29.44 in - Variable 2.3 mph - N/A   Clear
3:00 AM 98 °F - 49 °F 11% 29.46 in 6 mi West 4.6 mph - -  
3:00 AM 98.6 °F - 50.0 °F 19% 29.44 in - West 4.6 mph - N/A   Clear
3:30 AM 95.0 °F 94.4 °F 59.0 °F 30% 29.44 in - West 4.6 mph - N/A   Clear
4:00 AM 95.0 °F 95.2 °F 60.8 °F 32% 29.44 in - West 6.9 mph - N/A   Clear
4:30 AM 96.8 °F 96.2 °F 59.0 °F 28% 29.44 in 5.6 mi WNW 11.5 mph - N/A   Unknown
5:00 AM 96.8 °F 95.8 °F 57.2 °F 27% 29.47 in 5.6 mi WNW 10.4 mph - N/A   Unknown
5:30 AM 96.8 °F 97.1 °F 60.8 °F 30% 29.47 in 5.6 mi NW 13.8 mph - N/A   Unknown
6:00 AM 96 °F - 63 °F 24% 29.49 in 6 mi WNW 12.7 mph - -   Widespread Dust
6:00 AM 96.8 °F 98.0 °F 62.6 °F 32% 29.47 in 5.6 mi WNW 12.7 mph - N/A   Unknown
6:30 AM 96.8 °F 100.7 °F 66.2 °F 37% 29.47 in 4.3 mi NW 12.7 mph - N/A   Unknown
7:00 AM 96.8 °F 100.7 °F 66.2 °F 37% 29.47 in 4.3 mi NW 13.8 mph - N/A   Unknown
7:30 AM 98.6 °F 104.1 °F 68.0 °F 37% 29.47 in 4.3 mi NNW 15.0 mph 26.5 mph N/A   Unknown
8:00 AM 100.4 °F 104.9 °F 66.2 °F 33% 29.47 in 3.7 mi NNW 16.1 mph - N/A   Unknown
8:30 AM 102.2 °F 105.5 °F 64.4 °F 29% 29.47 in 2.5 mi NNW 16.1 mph - N/A   Unknown
9:00 AM 103 °F - 62 °F 18% 29.50 in 2 mi NNW 16.1 mph - -   Widespread Dust
9:00 AM 104.0 °F 106.6 °F 62.6 °F 26% 29.50 in 2.5 mi NNW 16.1 mph 27.6 mph N/A   Unknown
10:00 AM 107.6 °F 106.8 °F 55.4 °F 18% 29.47 in 1.9 mi NNW 19.6 mph - N/A   Low Drifting Widespread Dust
10:30 AM 109.4 °F 107.9 °F 53.6 °F 16% 29.47 in 1.9 mi NNW 21.9 mph 33.4 mph N/A   Low Drifting Widespread Dust
11:00 AM 107.6 °F 106.1 °F 53.6 °F 17% 29.47 in 1.9 mi NNW 19.6 mph - N/A   Low Drifting Widespread Dust
11:30 AM 109.4 °F 107.9 °F 53.6 °F 16% 29.47 in 2.2 mi NNW 20.7 mph - N/A   Low Drifting Widespread Dust
12:00 PM 110 °F - 55 °F 10% 29.49 in 2 mi NNW 20.7 mph - -   Blowing Sand
12:00 PM 111.2 °F 110.4 °F 55.4 °F 16% 29.47 in 2.5 mi NNW 20.7 mph - N/A   Low Drifting Widespread Dust
12:30 PM 111.2 °F 109.6 °F 53.6 °F 15% 29.47 in 2.5 mi NNW 20.7 mph - N/A   Low Drifting Widespread Dust
1:00 PM 111.2 °F 110.4 °F 55.4 °F 16% 29.47 in 2.5 mi North 21.9 mph - N/A   Low Drifting Widespread Dust
1:30 PM 109.4 °F 108.6 °F 55.4 °F 17% 29.47 in 2.5 mi NNW 19.6 mph - N/A   Unknown
2:00 PM 107.6 °F 108.2 °F 59.0 °F 20% 29.47 in 3.1 mi NNW 21.9 mph - N/A   Unknown
2:30 PM 107.6 °F 107.5 °F 57.2 °F 19% 29.47 in 3.1 mi NNW 19.6 mph - N/A   Unknown
3:00 PM 106 °F - 55 °F 11% 29.48 in 3 mi NNW 18.4 mph - -   Widespread Dust
3:00 PM 105.8 °F 104.9 °F 55.4 °F 19% 29.47 in 3.1 mi NNW 18.4 mph - N/A   Unknown
4:00 PM 104.0 °F 102.3 °F 53.6 °F 19% 29.47 in 3.7 mi NNW 19.6 mph 31.1 mph N/A   Unknown
4:30 PM 102.2 °F - 50.0 °F 17% 29.47 in 4.3 mi NNW 23.0 mph 34.5 mph N/A   Unknown
5:00 PM 102.2 °F - 51.8 °F 18% 29.47 in 5.0 mi NNW 20.7 mph 34.5 mph N/A   Unknown
5:30 PM 100.4 °F - 50.0 °F 18% 29.47 in 5.6 mi WNW 19.6 mph - N/A   Unknown
6:00 PM 101 °F - 50 °F 10% 29.49 in 6 mi NNW 19.6 mph - -  
6:00 PM 100.4 °F - 50.0 °F 18% 29.47 in - NNW 19.6 mph - N/A   Clear
6:30 PM 98.6 °F - 51.8 °F 21% 29.47 in - NNW 17.3 mph 28.8 mph N/A   Clear
7:00 PM 98.6 °F - 51.8 °F 21% 29.47 in - NNW 15.0 mph - N/A   Clear
8:00 PM 98.6 °F - 46.4 °F 17% 29.50 in - NW 16.1 mph 28.8 mph N/A   Clear
9:00 PM 99 °F - 36 °F 5% 29.52 in 7 mi NW 15.0 mph - -  
9:30 PM 98.6 °F - 39.2 °F 13% 29.50 in - NW 16.1 mph - N/A   Clear
10:00 PM 96.8 °F - 44.6 °F 17% 29.50 in - NW 15.0 mph - N/A   Clear
10:30 PM 96.8 °F - 48.2 °F 19% 29.50 in - NW 13.8 mph - N/A   Clear
11:00 PM 96.8 °F - 50.0 °F 20% 29.50 in - NW 15.0 mph - N/A   Clear
11:30 PM 95.0 °F - 50.0 °F 22% 29.50 in - NW 15.0 mph - N/A   Clear